Regional Weather Roundup
Issued by NWS

Home | Current Version | Previous Version | Graphics & Text | Print | Product List | Glossary On
Versions: 1 2 3 4 5 6 7 8 9 10 11 12 13 14 15 16 17 18 19 20 21 22 23 24 25 26 27 28 29 30 31 32 33 34 35 36 37 38 39 40 41 42 43 44 45 46 47 48
000
ASUS45 KSLC 270210
RWRUT

UTAH REGIONAL WEATHER ROUNDUP
NATIONAL WEATHER SERVICE SALT LAKE CITY UT
800 PM MDT THU MAR 26 2015

UTZ001>011-023>025-270300-

NORTHERN UTAH

CITY           SKY/WX    TMP DP  RH WIND       PRES   REMARKS
BRIGHAM CITY   CLEAR     53  32  43 SE5       30.33S
HILL AFB       CLEAR     54  24  31 CALM      30.32F
LOGAN          CLEAR     56  30  37 CALM      30.31F
OGDEN          CLEAR     55  26  32 NE3       30.31F
PROVO AIRPORT  NOT AVBL
SALT LAKE CITY PTCLDY    56  26  31 NW5       30.32S
VERNAL         PTCLDY    57  19  22 CALM      30.22S
WENDOVER       CLEAR     57  27  30 S6        30.31S
HEBER CITY     PTCLDY    48  27  43 SW8       30.32R
WEST JORDAN    CLEAR     52  30  43 W6        30.33S

$$

UTZ012>022-026-027-270300-

SOUTHERN/CENTRAL UTAH

CITY           SKY/WX    TMP DP  RH WIND       PRES   REMARKS
BLANDING       CLEAR     55  17  22 SW7       30.32S
BRYCE CANYON   PTCLDY    51  25  36 NW10      30.35S
CEDAR CITY     CLEAR     51  24  34 N7        30.30R
DELTA          CLEAR     58  22  24 NE3       30.31S
HANKSVILLE     PTCLDY    61  18  18 CALM      30.24R
MILFORD        CLEAR     54  23  30 NE9       30.30S
MOAB/CYNLANDS  CLEAR     55  14  19 NW7       30.21R
PRICE          PTCLDY    57  20  23 NW16      30.27R
ST GEORGE      PTCLDY    72  25  17 S3        30.18S
KANAB          CLEAR     57  23  26 CALM      30.27S

$$

REGIONAL REPORTS     COLORADO/ARIZONA

CITY           SKY/WX    TMP DP  RH WIND       PRES   REMARKS
CRAIG, CO      MOCLDY    45  27  49 SW10      30.24S
GRAND JUNCTION PTCLDY    54  17  23 N8        30.22S
RIFLE          PTCLDY    54  21  27 W10       30.24R
MONTROSE       CLEAR     54  19  25 NE3       30.28R
CORTEZ         CLEAR     54  15  21 W8        30.26R
PAGE, AZ       CLEAR     65  17  15 N5        30.22F
GRAND CANYON   PTCLDY    52  15  23 CALM      30.33R
KINGMAN        CLEAR     65  21  18 N10       30.17R
FLAGSTAFF      PTCLDY    52  13  21 E7        30.33R

$$

REGIONAL REPORTS    NEVADA/IDAHO/WYOMING

CITY           SKY/WX    TMP DP  RH WIND       PRES   REMARKS
LAS VEGAS, NV  PTCLDY    77  21  12 CALM      30.10R
ELY            CLEAR     59  20  22 N7        30.30R
ELKO           CLEAR     62  31  31 SW3       30.27F
POCATELLO, ID  CLEAR     54  33  45 SW9       30.30F
BURLEY         CLEAR     54  34  46 W5        30.28S
EVANSTON, WY   PTCLDY    45  27  49 W6        30.36S
ROCK SPRINGS   PTCLDY    47  28  47 W23       30.29R
KEMMERER       PTCLDY    41  32  70 W10       30.36S

$$


USA.gov is the U.S. government's official web portal to all federal, state and local government web resources and services.